Location: Cutler
(25.6150°N, 80.3110°W)
Time: 20:04:37
(UTC-05:00)

Tiangong 2 - Pass Details

Date: 13 November 2017
Orbit: 386 x 391 km, 42.8° (Epoch: 20 November)

Event Time Altitude Azimuth Distance (km) Brightness Sun altitude
Rises 18:55:09 0° 308° (NW) 2,267 5.6 -18.6°
Reaches altitude 10° 18:57:14 10° 309° (NW) 1,409 4.4 -19.0°
Enters shadow 19:00:12 75° 331° (NNW) 401 1.1 -19.7°
